Regional Weather Roundup
Issued by NWS

Home | Current Version | Previous Version | Text Only | Print | Product List | Glossary On
Versions: 1 2 3 4 5 6 7 8 9 10 11 12 13 14 15 16 17 18 19 20 21 22 23 24 25 26 27 28 29 30 31 32 33 34 35 36 37 38 39 40 41 42 43 44 45 46 47 48 49 50
000
ASUS44 KLIX 180210
RWRLA
LOUISIANA WEATHER ROUNDUP
NATIONAL WEATHER SERVICE NEW ORLEANS LA
900 PM CDT WED SEP 17 2014

NOTE: "FAIR" INDICATES FEW OR NO CLOUDS BELOW 12,000 FEET WITH NO
      SIGNIFICANT WEATHER AND/OR OBSTRUCTIONS TO VISIBILITY.
      SKY/WX - SKY CONDITION AND SIGNIFICANT WEATHER.
      TMP - AIR TEMPERATURE.    DP   - DEWPOINT TEMPERATURE.
      RH  - RELATIVE HUMIDITY.  PRES - PRESSURE.
      HX  - HEAT INDEX.         WCI  - WIND CHILL INDEX.

*  THESE STATIONS ARE NOT NWS OR FAA STATIONS AND ARE NOT UNDER
   NWS QUALITY CONTROL.

LAZ040-048-061>063-065-066-069-180300-
SOUTHEAST LOUISIANA

CITY           SKY/WX    TMP DP  RH WIND       PRES   REMARKS
N.O. AUDUBON     N/A     82  73  74 MISG        N/A
N.O. INTL ARPT MOCLDY    80  72  76 SW7       29.92R
N.O. LAKEFRONT PTCLDY    80  73  79 S7        29.92S
N.O. DOWNTOWN* FAIR      82  68  61 S5        29.93R
SLIDELL        MOCLDY    77  73  87 CALM      29.91S
BATON ROUGE    CLEAR     78  74  87 CALM      29.92R
BOOTHVILLE     PTCLDY    80  76  87 SE3       29.92S
BELLE CHASSE   PTCLDY    77  71  82 SW3       29.92R
BOGALUSA*        N/A     79  73  83 CALM      29.94R
GALLIANO*      NOT AVBL
NEW ROADS*     FAIR      76  74  93 CALM      29.92S
GONZALES*      FAIR      77  77 100 CALM      29.92S
HAMMOND*       PTCLDY    77  73  88 CALM      29.94R
HOUMA*         PTCLDY   N/A N/A N/A CALM      29.93R
PORT FOURCHON* PTCLDY    82  73  74 W3        29.96R

$$

LAZ041-044-053-054-180300-
SOUTHWEST LOUISIANA

CITY           SKY/WX    TMP DP  RH WIND       PRES   REMARKS
LAKE CHARLES   MOCLDY    77  75  93 CALM      29.92S
LAFAYETTE      CLEAR     79  76  90 W6        29.93R
PATTERSON      PTCLDY    77  73  88 CALM      29.96R
SALT POINT       N/A     82  75  79 CALM      29.93R
NEW IBERIA     CLEAR     78  75  90 SW3       29.94R
CHENAULT AIRPK MOCLDY    77  75  94 CALM      29.93R

$$

LAZ027-028-180300-
CENTRAL LOUISIANA

CITY           SKY/WX    TMP DP  RH WIND       PRES   REMARKS
FORT POLK      CLEAR     74  72  93 S3        29.93R
ALEXANDRIA INT CLEAR     78  73  84 CALM      29.90R
ALEXANDRIA     PTCLDY    75  73  93 CALM      29.92R FOG

$$

LAZ001-002-180300-
NORTHWEST LOUISIANA

CITY           SKY/WX    TMP DP  RH WIND       PRES   REMARKS
SHREVEPORT     MOCLDY    82  71  69 SE7       29.90R
BARKSDALE AFB  PTCLDY    77  71  82 E3        29.92R
DTN SHREVEPORT PTCLDY    81  71  71 SE6       29.91R

$$

LAZ014-016-180300-
NORTHEAST LOUISIANA

CITY           SKY/WX    TMP DP  RH WIND       PRES   REMARKS
MONROE         PTCLDY    76  72  87 CALM      29.92R
TALLULAH       PTCLDY    74  71  91 CALM      29.91R

$$




USA.gov is the U.S. government's official web portal to all federal, state and local government web resources and services.